www.pogodaiklimat.ru

Погода и климат >> Архив погоды >> Сенегал >> Зигиншор


ПОГОДА в Зигиншоре

  • Прогноз погоды в Зигиншоре
  • Монитор погоды в Зигиншоре

АРХИВ ПОГОДЫ в Зигиншоре

Время (UTC), дата Ветер
(напр.,м/с)
 
Видим.   Явления Облачность Т
(С)
Тd
(С)
f
(%)
Тe
(С)
Тes
(С)
Комфортность P
(гПа)
Po
(гПа)
Тmin
(С)
Tmax
(С)
R
(мм)
R24
(мм)
S
(см)
21 11.07 ЮЗ 2 10 км {гроза} 9/8 450 м
[Sc Ac As]
+27.9 +24.5 82 +39 +39 очень
душно
1013.0 1010.4
00 12.07 СЗ 2 10 км {гроза} 9/8 450 м
[Sc Ac As]
+27.0 +24.3 85 +38 +38 очень
душно
1014.5 1011.9
03 12.07 С 1 10 км 6/4 60 м
[Sc Ac cast]
+26.0 +24.6 92 +37 +37 очень
душно
1013.7 1011.1
06 12.07 СЗ 1 10 км зарница 6/4 480 м
[Cb calv Ac cast]
+25.0 +24.3 96 +35 +35 очень
душно
1013.0 1010.4 +25.0
09 12.07 СЗ 3 12 км 9/6 450 м
[Sc Ci sp]
+27.5 +24.5 84 +39 +41 очень
душно
1013.7 1011.1
12 12.07 Ю 1 12 км 9/9 600 м
[Cu med, cong]
+31.1 +23.8 65 +42 +45 опасность
перегрева
1013.6 1011.0
15 12.07 ЮЗ 2 12 км 9/9 480 м
[Cu med, cong]
+34.0 +24.1 56 +46 +47 опасность
перегрева
1011.8 1009.2
18 12.07 ЮЗ 5 10 км гроза без осадков 9/4 450 м
[Cb cap Ci sp]
+31.5 +23.7 63 +43 +43 опасность
перегрева
1010.3 1007.7 +35.0
21 12.07 ЮЗ 2 8000 м гроза, ливневой дождь 10/3 700 м
[Cb cap Ac As]
+26.7 +25.0 90 +38 +38 очень
душно
1013.2 1010.6
00 13.07 СЗ 2 8000 м {гроза, дождь} 9/6 600 м
[Sc Ac As]
+26.2 +24.0 88 +36 +36 очень
душно
1014.7 1012.1 15
03 13.07 С 1 8000 м 8/4 480 м
[Sc Ac As]
+25.8 +24.1 90 +36 +36 очень
душно
1013.4 1010.8
06 13.07 ЮВ 1 6000 м в посл. час дождь 9/4 450 м
[Sc Ac As]
+22.5 +21.8 96 +30 +30 очень
душно
1013.6 1011.0 +22.3 17
09 13.07 С 2 10 км 9/3 450 м
[Sc Ac cast]
+24.2 +22.4 90 +32 +33 очень
душно
1013.4 1010.8
12 13.07 ЮВ 2 12 км 9/0
[Ci sp]
+30.6 +22.3 61 +40 +56 опасность
солнечного
удара
1013.0 1010.4
15 13.07 ЮЗ 3 10 км 8/5 480 м
[Cu med, cong Ac und Ci sp]
+33.8 +23.4 55 +45 +50 опасность
перегрева
1011.3 1008.7
18 13.07 ЮЗ 6 10 км 9/8 600 м
[Cu med, cong Ac cast]
+31.0 +25.4 72 +45 +45 опасность
перегрева
1011.5 1008.8 +34.0
21 13.07 Ю 3 10 км зарница 9/1 600 м
[Cb calv Ac cast]
+27.6 +24.6 84 +39 +39 очень
душно
1013.5 1010.8
00 14.07 Ю 1 10 км 10/0
[Ac As]
+27.0 +24.1 84 +37 +37 очень
душно
1015.0 1012.4
03 14.07 ЮЗ 2 10 км {дождь} 10/1 480 м
[Sc Ac As]
+26.0 +24.6 92 +37 +37 очень
душно
1013.5 1010.9
06 14.07 Ю 1 10 км {дождь} 10/0
[Ac As]
+25.7 +24.7 94 +36 +36 очень
душно
1011.2 1008.6 +25.5 0.3
09 14.07 ЮВ 1 12 км 10/4 480 м
[Cu med, cong Ac As]
+26.7 +25.0 90 +38 +39 очень
душно
1013.9 1011.3
12 14.07 В 2 12 км 9/6 450 м
[Cu med, cong Ac cast]
+31.5 +25.2 69 +45 +49 опасность
перегрева
1014.1 1011.5
15 14.07 Ю 4 10 км 9/9 450 м
[Cu med, cong]
+32.0 +26.1 71 +48 +49 опасность
перегрева
1013.4 1010.8
18 14.07 Ю 4 10 км 8/6 450 м
[Cu med, cong Ac trans]
+32.5 +25.4 66 +47 +47 опасность
перегрева
1013.0 1010.4 +34.0
21 14.07 ЮЗ 2 10 км 5/5 480 м
[Sc]
+27.8 +25.3 86 +40 +40 очень
душно
1013.1 1010.5
00 15.07 ЮЗ 2 10 км 8/3 450 м
[Sc Ci sp]
+26.5 +25.1 92 +38 +38 очень
душно
1014.0 1011.4
06 15.07 Ю 2 10 км ясно +25.0 +25.0 100 +36 +36 очень
душно
1012.5 1009.9 +25.0
09 15.07 ЮЗ 2 10 км 4/4 480 м
[Sc]
+28.1 +26.0 88 +42 +46 опасность
перегрева
1013.2 1010.6
12 15.07 З 2 10 км 8/8 450 м
[Cu med, cong]
+32.2 +24.3 63 +44 +48 опасность
перегрева
1013.5 1010.9
15 15.07 ЮЗ 6 12 км 8/8 480 м
[Cu med, cong Ci sp]
+34.0 +24.1 56 +46 +47 опасность
перегрева
1011.5 1008.9
18 15.07 ЮЗ 3 12 км 6/5 400 м
[Sc diur, vesp Ci sp]
+31.5 +25.1 69 +45 +46 опасность
перегрева
1010.8 1008.2 +35.0
21 15.07 ЮЗ 3 10 км 8/5 400 м
[Sc Ci sp]
+28.7 +24.7 79 +41 +41 опасность
перегрева
1012.2 1009.6
00 16.07 З 3 10 км 6/6 480 м
[Sc]
+27.6 +23.7 79 +38 +38 очень
душно
1012.5 1009.9
03 16.07 СЗ 2 10 км 9/6 480 м
[Sc Ac cast]
+26.6 +24.3 87 +37 +37 очень
душно
1012.0 1009.4
06 16.07 СЗ 1 10 км 6/1 480 м
[Sc Ac cast]
+25.6 +24.7 95 +36 +36 очень
душно
1011.0 1008.4 +25.2
09 16.07 СЗ 3 12 км 9/4 400 м
[Sc Ci sp]
+26.9 +23.0 79 +36 +38 очень
душно
1012.6 1010.0
12 16.07 СЗ 2 12 км 9/4 480 м
[Sc Ci sp]
+30.0 +22.4 64 +39 +49 очень
душно
1013.3 1010.7
15 16.07 СВ 4 12 км 9/3 480 м
[Cu hum Ac As]
+29.5 +23.6 71 +40 +43 очень
душно
1012.0 1009.4
18 16.07 Ю 3 12 км 9/0
[Ac cast Ci sp]
+30.0 +24.3 72 +42 +44 опасность
перегрева
1010.1 1007.5 +25.0
21 16.07 СЗ 1 10 км 9/3 450 м
[Sc Ac As]
+27.0 +23.5 81 +37 +37 очень
душно
1012.6 1010.0
00 17.07 Ю 1 10 км 10/0
[Ac As]
+26.3 +23.7 86 +36 +36 очень
душно
1014.5 1011.9
03 17.07 ЮЗ 1 8000 м {дождь} 9/0
[Ac As]
+26.0 +24.1 89 +36 +36 очень
душно
1013.3 1010.6
06 17.07 Ю 1 8000 м {дождь} 6/3 330 м
[Sc Ac lent]
+24.7 +23.7 94 +34 +34 очень
душно
1013.5 1010.9 +24.5 0.2
09 17.07 СВ 1 10 км 10/0
[Ac As]
+26.0 +24.6 92 +37 +39 очень
душно
1015.1 1012.5
12 17.07 Ю 1 12 км в посл. час дождь 10/6 400 м
[Sc Ac As]
+25.5 +24.8 96 +36 +39 очень
душно
1016.5 1013.9 16
15 17.07 Ю 4 9000 м слаб. дождь 9/9 400 м
[Cu med, cong]
+29.2 +25.4 80 +43 +44 опасность
перегрева
1015.3 1012.7
18 17.07 Ю 3 10 км {дождь} 9/8 400 м
[Cu med, cong Ac cast]
+29.0 +24.8 78 +41 +42 опасность
перегрева
1014.9 1012.3 +30.0 16
21 17.07 ЮЗ 2 10 км 9/0
[Ac cast]
+25.8 +24.4 92 +36 +36 очень
душно
1015.2 1012.6
00 18.07 Ю 1 10 км 9/0
[Ac cast]
+25.0 +24.3 96 +35 +35 очень
душно
1016.2 1013.6
06 18.07 ЮЗ 1 10 км 4/1 480 м
[Sc Ci sp]
+24.5 +24.5 100 +34 +34 очень
душно
1014.6 1012.0 +24.0 16
09 18.07 З 2 10 км 9/8 600 м
[Cu med, cong Ac cast]
+26.3 +25.2 94 +38 +39 очень
душно
1015.7 1013.0
12 18.07 З 3 10 км 9/8 600 м
[Cu med, cong Ac cast]
+29.5 +23.8 71 +40 +43 очень
душно
1016.0 1013.4
15 18.07 З 3 10 км 9/6 480 м
[Cu med, cong Ac As]
+30.3 +24.3 70 +42 +45 опасность
перегрева
1015.1 1012.5
18 18.07 З 3 10 км 8/6 480 м
[Cu med, cong Ac cast]
+30.0 +25.1 75 +43 +44 опасность
перегрева
1013.6 1011.0 +33.6

 

Местоположение метеостанции Зигиншор (Сенегал): широта 12.55 долгота -16.26 высота над уровнем моря 23 м.

В архиве по умолчанию представлена погода в Зигиншоре за последнюю неделю. Архивные данные за месяц целиком и за предыдущие месяцы, начиная с января 2011 года, Вы можете получить, выбрав интересующий диапазон дат из раскрывающегося списка и нажав кнопку "Ввод!".


*Определитесь, кто Вы:
робот инопланетянин человек

Внимание! Время в таблицах - всемирное. Для получения местного времени необходимо прибавить поправку, которая равна 0 ч.

Смотрите также архив погоды в соседних городах и на ближайших метеорологических станциях:

Погода в Кап Скиррен (Сенегал) (56 км)
Погода в Сибаноре (Гамбия) (75 км)
Погода в Банжуле (Гамбия) (98 км)
Погода в Биссау (Гвинея-Биссау) (98 км)
Погода в Банжуле Half-Die (Гамбия) (102 км)
Погода в Кереване (Гамбия) (106 км)
Погода в Сапу (Гамбия) (119 км)
Погода в Женое (Гамбия) (128 км)
Погода в Боламе (Гвинея-Биссау) (137 км)
Погода в Колде (Сенегал) (146 км)

Пояснения к столбцам:

Ветер - указаны скорость ветра в м/с - средняя за 10 мин, порывы в срок и между сроками (в фигурных скобках) и направление, откуда дует ветер: С - северный, СВ - северо-восточный, В - восточный, ЮВ - юго-восточный, Ю - южный, ЮЗ - юго-западный, З - западный, СЗ - северо-западный.
Видимость - горизонтальная дальность видимости в метрах или километрах. При видимости от 1 до 10 км при отсутствии осадков обычно наблюдается дымка, при ухудшении видимости до 1 км и менее - туман. В сухую погоду видимость может ухудшаться дымом, пылью или мглою.
Явления - указаны атмосферные явления, наблюдавшиеся в срок или в последний час перед сроком; фигурными скобками обозначены явления, наблюдавшиеся между сроками (за 1-3 часа до срока); квадратными скобками обозначены град или гололедные отложения с указанием их диаметра в мм.
Облачность - указаны через наклонную черту общая и нижняя облачность в баллах и высота нижней границы облаков в метрах; квадратными скобками обозначены формы облаков: Ci - перистые, Cs - перисто-слоистые, Cc - перисто-кучевые, Ac - высококучевые, As - высокослоистые, Sc - слоисто-кучевые, Ns - слоисто-дождевые, Cu - кучевые, Cb - кучево-дождевые. Подробнее классификацию облаков см. в Атласе облаков (PDF).
T - Температура воздуха - температура, измеренная на высоте 2 м над землей.
Td - Температура точки росы - температура, при понижении до которой содержащийся в воздухе водяной пар достигнет насыщения.
f - Относительная влажность воздуха - влажноcть воздуха, измеренная на высоте 2 м над землей.
Te - Эффективная температура - температура, которую ощущает одетый по сезону человек в тени. Характеристика душности погоды. При расчете учитывается влияние влажности воздуха и скорости ветра на теплоощущения человека.
Tes - Эффективная температура на солнце - температура, которую ощущает человек, с поправкой на солнечный нагрев. Характеристика знойности погоды. Зависит от высоты солнца над горизонтом, облачности и скорости ветра. Ночью, в пасмурную погоду, а также при ветре 12 м/с и более поправка равна нулю.
P - Атмосферное давление - приведенное к уровню моря атмосферное давление.
Po - Атмосферное давление - измеренное на уровне метеостанции атмосферное давление.
Tmin - Минимальная температура - минимум температуры воздуха на высоте 2 м над землей.
Tmax - Максимальная температура - максимум температуры воздуха на высоте 2 м над землей.
R - Количество осадков - Количество выпавших осадков за период времени, мм. При наведении курсора мыши на число - период времени, за который выпало указанное количество осадков.
R24 - Количество осадков - Количество выпавших осадков за 24 часа, мм.
S - Снежный покров - Высота снежного покрова, см. При наведении курсора мыши на число - состояние снежного покрова и степень покрытия местности в баллах.